Terug naar catalogus

FOURIER

ActiefWetenschapSSO
NORAD 65298·PAYLOAD·🇷🇼 Rwanda

Gelanceerd Aug 23, 2025 vanaf Rocket Lab Launch Complex 1

Loading…

Volgende Passages (komende 24 uur)

TLE

VersSource: Space-Track

Epoch: Sep 13, 2026, 20:07 UTC

1 65298U 25185B   26256.83886459  .00007005  00000-0  91319-3 0  9991
2 65298  97.9649 339.5118 0015654 153.7350 206.4659 14.80788183 56956

Volg FOURIER in realtime met AllMySat

Download on the App Store